EW1613 Weather Reports


time (UTC)temp
C
wind
direction
speed
KPH
gust
KPH
rain 1hr
cm
rain 24hr
cm
rain mn
cm
humidity
%
barometer
mb
20260507195940 17 49 3.2 6.4 0.00 0.00 0.00 80 1015.1
20260507195436 17 43 0.0 6.4 0.00 0.00 0.00 79 1014.9
20260507194954 17 44 1.6 4.8 0.00 0.00 0.00 79 1014.9
20260507194457 18 63 3.2 4.8 0.00 0.00 0.00 78 1014.7
20260507193953 18 111 0.0 4.8 0.00 0.00 0.00 78 1014.6
20260507193449 18 110 1.6 9.7 0.00 0.00 0.00 78 1014.6
20260507193005 18 107 1.6 9.7 0.00 0.00 0.00 79 1014.5
20260507192434 18 105 3.2 6.4 0.00 0.00 0.00 79 1014.5
20260507192011 18 83 3.2 6.4 0.00 0.00 0.00 78 1014.4
20260507191445 18 96 3.2 6.4 0.00 0.00 0.00 78 1014.3
20260507190938 18 74 1.6 6.4 0.00 0.00 0.00 78 1014.1
20260507190514 18 85 1.6 6.4 0.00 0.00 0.00 77 1014.1
20260507185941 18 85 0.0 9.7 0.00 0.00 0.00 76 1014.0
20260507185438 18 82 4.8 9.7 0.00 0.00 0.00 76 1013.9
20260507184949 18 87 3.2 8.0 0.00 0.00 0.00 76 1013.9
20260507184446 18 83 1.6 9.7 0.00 0.00 0.00 75 1013.9
20260507183959 18 98 1.6 11.3 0.00 0.00 0.00 75 1013.8
20260507183451 18 87 3.2 12.9 0.00 0.00 0.00 74 1013.7
20260507182949 18 71 4.8 12.9 0.00 0.00 0.00 74 1013.7
20260507182459 18 82 4.8 14.5 0.00 0.00 0.00 73 1013.7
20260507181953 19 63 4.8 14.5 0.00 0.00 0.00 73 1013.7
20260507181444 19 79 3.2 12.9 0.00 0.00 0.00 73 1013.6
20260507181001 19 69 4.8 12.9 0.00 0.00 0.00 73 1013.5
20260507180451 19 55 3.2 11.3 0.00 0.00 0.00 72 1013.4
20260507175948 19 86 3.2 12.9 0.00 0.00 0.00 71 1013.3
20260507175459 20 72 4.8 12.9 0.00 0.00 0.00 71 1013.3
20260507174935 20 75 8.0 14.5 0.00 0.00 0.00 70 1013.1
20260507174450 20 83 6.4 16.1 0.00 0.00 0.00 69 1013.0
20260507173940 20 82 6.4 16.1 0.00 0.00 0.00 68 1013.0
20260507173458 20 52 4.8 12.9 0.00 0.00 0.00 67 1012.9
20260507172953 20 59 4.8 14.5 0.00 0.00 0.00 66 1012.9
20260507172443 21 66 4.8 16.1 0.00 0.00 0.00 65 1012.8
20260507171939 21 69 8.0 17.7 0.00 0.00 0.00 63 1012.7
20260507171448 21 49 8.0 17.7 0.00 0.00 0.00 58 1012.7
20260507170944 21 53 9.7 16.1 0.00 0.00 0.00 57 1012.7
20260507170458 22 16 6.4 16.1 0.00 0.00 0.00 57 1012.6
20260507165947 22 21 3.2 16.1 0.00 0.00 0.00 54 1012.6
20260507165437 23 336 3.2 9.7 0.00 0.00 0.00 50 1012.6
20260507164953 23 255 0.0 1.6 0.00 0.00 0.00 47 1012.5
20260507164509 23 255 0.0 4.8 0.00 0.00 0.00 47 1012.6
20260507163944 23 255 1.6 4.8 0.00 0.00 0.00 48 1012.6
20260507163434 23 269 1.6 4.8 0.00 0.00 0.00 49 1012.5
20260507162948 23 259 1.6 4.8 0.00 0.00 0.00 49 1012.6
20260507162438 23 324 0.0 6.4 0.00 0.00 0.00 49 1012.6
20260507161935 22 318 1.6 4.8 0.00 0.00 0.00 50 1012.6
20260507161513 22 329 1.6 3.2 0.00 0.00 0.00 52 1012.5
20260507160941 22 50 0.0 3.2 0.00 0.00 0.00 52 1012.6
20260507160436 22 51 1.6 6.4 0.00 0.00 0.00 53 1012.5
20260507155941 22 24 1.6 8.0 0.00 0.00 0.00 52 1012.6
20260507155436 22 15 1.6 8.0 0.00 0.00 0.00 52 1012.6
20260507155011 22 315 1.6 6.4 0.00 0.00 0.00 52 1012.6
20260507154438 22 325 1.6 9.7 0.00 0.00 0.00 51 1012.6
20260507153935 22 302 4.8 9.7 0.00 0.00 0.00 52 1012.5
20260507153452 23 312 1.6 8.0 0.00 0.00 0.00 52 1012.5
20260507152941 23 323 1.6 9.7 0.00 0.00 0.00 53 1012.4
20260507152439 22 322 3.2 9.7 0.00 0.00 0.00 54 1012.4
20260507151950 22 101 0.0 1.6 0.00 0.00 0.00 54 1012.4
20260507151446 22 109 0.0 8.0 0.00 0.00 0.00 55 1012.3
20260507151005 22 109 1.6 8.0 0.00 0.00 0.00 56 1012.3
20260507150447 22 316 0.0 8.0 0.00 0.00 0.00 56 1012.3
20260507145954 22 306 1.6 9.7 0.00 0.00 0.00 56 1012.3
20260507145450 22 29 3.2 14.5 0.00 0.00 0.00 57 1012.4
20260507144941 22 55 6.4 14.5 0.00 0.00 0.00 56 1012.4
20260507144439 22 343 3.2 9.7 0.00 0.00 0.00 55 1012.5
20260507143944 22 317 4.8 14.5 0.00 0.00 0.00 53 1012.4
20260507143442 22 252 4.8 17.7 0.00 0.00 0.00 53 1012.4
20260507142934 22 321 11.3 17.7 0.00 0.00 0.00 53 1012.5
20260507142451 23 295 4.8 16.1 0.00 0.00 0.00 53 1012.5
20260507141948 23 271 6.4 22.5 0.00 0.00 0.00 51 1012.4
20260507141439 23 226 11.3 22.5 0.00 0.00 0.00 47 1012.4
20260507140957 24 254 8.0 14.5 0.00 0.00 0.00 45 1012.4
20260507140451 23 321 3.2 16.1 0.00 0.00 0.00 44 1012.4
20260507135939 23 239 11.3 16.1 0.00 0.00 0.00 44 1012.5
20260507135436 23 249 1.6 19.3 0.00 0.10 0.00 43 1012.4
20260507134947 23 250 8.0 24.1 0.00 0.10 0.00 45 1012.5
20260507134504 23 235 17.7 24.1 0.00 0.10 0.00 45 1012.6
20260507133957 23 241 4.8 16.1 0.00 0.10 0.00 48 1012.6
20260507133512 23 254 8.0 22.5 0.00 0.10 0.00 47 1012.5
20260507132942 23 223 12.9 22.5 0.00 0.10 0.00 48 1012.5
20260507132438 23 238 4.8 11.3 0.00 0.10 0.00 48 1012.6
20260507132011 23 265 4.8 17.7 0.00 0.10 0.00 48 1012.6
20260507131508 23 230 8.0 20.9 0.00 0.10 0.00 48 1012.6
20260507130935 23 240 8.0 24.1 0.00 0.10 0.00 48 1012.6
20260507130452 23 200 9.7 24.1 0.00 0.10 0.00 49 1012.6
20260507130007 23 220 12.9 22.5 0.00 0.10 0.00 46 1012.7
20260507125435 23 210 12.9 25.7 0.00 0.41 0.00 50 1012.6
20260507125011 23 201 8.0 25.7 0.00 0.41 0.00 50 1012.6
20260507124446 23 244 12.9 25.7 0.00 0.41 0.00 50 1012.7
20260507123934 23 230 11.3 19.3 0.00 0.41 0.00 51 1012.8
20260507123451 22 258 4.8 16.1 0.00 0.41 0.00 51 1012.8
20260507122940 22 280 6.4 16.1 0.00 0.41 0.00 55 1012.7
20260507122455 22 249 11.3 20.9 0.00 0.41 0.00 54 1012.8
20260507121951 22 233 3.2 22.5 0.00 0.41 0.00 53 1012.7
20260507121440 22 221 14.5 24.1 0.00 0.41 0.00 54 1012.8
20260507120938 22 242 8.0 24.1 0.00 0.41 0.00 54 1012.8
20260507120455 22 225 9.7 22.5 0.00 0.41 0.00 53 1012.8
20260507115944 22 235 6.4 24.1 0.00 0.41 0.00 54 1012.8
20260507115436 22 325 6.4 24.1 0.00 0.41 0.00 54 1012.9
20260507114951 22 216 4.8 19.3 0.00 0.41 0.00 54 1012.9
20260507114448 22 219 11.3 17.7 0.00 0.41 0.00 54 1012.9
20260507113939 22 238 6.4 17.7 0.00 0.41 0.00 55 1012.9
20260507113434 22 228 11.3 17.7 0.00 0.41 0.00 53 1013.0
20260507112944 22 225 8.0 19.3 0.00 0.41 0.00 54 1013.0
20260507112442 22 242 11.3 20.9 0.00 0.41 0.00 55 1013.1
20260507111939 22 209 9.7 20.9 0.00 0.41 0.00 55 1013.1
20260507111448 22 227 6.4 22.5 0.00 0.41 0.00 54 1013.1
20260507111006 22 221 8.0 22.5 0.00 0.41 0.00 55 1013.2
20260507110438 21 264 12.9 22.5 0.00 0.41 0.00 54 1013.2
20260507105954 22 243 11.3 22.5 0.00 0.41 0.00 55 1013.2
20260507105444 22 250 9.7 22.5 0.00 0.41 0.00 55 1013.3
20260507104939 22 249 6.4 19.3 0.00 0.41 0.00 56 1013.3
20260507104436 22 232 9.7 19.3 0.00 0.41 0.00 56 1013.4
20260507103947 22 182 8.0 12.9 0.00 0.41 0.00 55 1013.4
20260507103442 21 218 4.8 14.5 0.00 0.41 0.00 59 1013.5
20260507102958 21 217 4.8 17.7 0.00 0.41 0.00 57 1013.6
20260507102448 21 213 4.8 19.3 0.00 0.41 0.00 56 1013.7
20260507101939 21 226 11.3 19.3 0.00 0.41 0.00 58 1013.7
20260507101517 21 243 1.6 14.5 0.00 0.41 0.00 60 1013.8
20260507100946 21 252 8.0 16.1 0.00 0.41 0.00 59 1013.9
20260507100437 21 181 4.8 16.1 0.00 0.41 0.00 60 1013.9
20260507095933 21 243 4.8 12.9 0.00 0.41 0.00 60 1013.9
20260507095449 21 207 1.6 14.5 0.00 0.41 0.00 60 1013.9
20260507094944 21 263 6.4 14.5 0.00 0.41 0.00 59 1013.9
20260507094519 21 227 4.8 14.5 0.00 0.41 0.00 60 1013.8
20260507093950 21 254 6.4 14.5 0.00 0.41 0.00 60 1013.8
20260507093446 21 125 1.6 8.0 0.00 0.41 0.00 61 1013.7
20260507092936 20 203 1.6 9.7 0.00 0.41 0.00 63 1013.7
20260507092453 20 213 3.2 14.5 0.00 0.41 0.00 62 1013.7
20260507091944 20 233 4.8 14.5 0.00 0.41 0.00 63 1013.7
20260507091439 20 263 3.2 16.1 0.00 0.41 0.00 62 1013.7
20260507090954 21 180 6.4 16.1 0.00 0.41 0.00 61 1013.8
20260507090444 21 225 1.6 9.7 0.00 0.41 0.00 62 1013.8
20260507090002 21 211 6.4 9.7 0.00 0.41 0.00 63 1013.8
20260507085457 20 219 0.0 12.9 0.00 0.41 0.00 64 1013.7
20260507085013 20 220 4.8 12.9 0.00 0.41 0.00 63 1013.8
20260507084449 20 234 1.6 8.0 0.00 0.41 0.00 64 1013.7
20260507083937 20 239 1.6 8.0 0.00 0.41 0.00 67 1013.7
20260507083449 20 240 0.0 4.8 0.00 0.41 0.00 68 1013.7
20260507082939 20 327 0.0 6.4 0.00 0.41 0.00 71 1013.7
20260507082436 19 278 1.6 8.0 0.00 0.41 0.00 70 1013.7
20260507081945 20 308 4.8 8.0 0.00 0.41 0.00 69 1013.7
20260507081441 20 283 1.6 8.0 0.00 0.41 0.00 70 1013.7
20260507080959 20 240 1.6 6.4 0.00 0.41 0.00 71 1013.7
20260507080447 19 113 0.0 4.8 0.00 0.41 0.00 74 1013.7
20260507075938 18 115 0.0 4.8 0.00 0.41 0.00 75 1013.7
20260507075434 18 180 1.6 3.2 0.00 0.41 0.00 77 1013.7
20260507075011 18 180 0.0 3.2 0.00 0.41 0.00 78 1013.7
20260507074447 18 219 0.0 0.0 0.00 0.41 0.00 79 1013.7
20260507073934 18 295 0.0 0.0 0.00 0.41 0.00 78 1013.7
20260507073451 18 295 0.0 0.0 0.00 0.41 0.00 79 1013.7
20260507072946 18 309 0.0 0.0 0.00 0.41 0.00 79 1013.6
20260507072436 18 311 0.0 0.0 0.00 0.41 0.00 79 1013.6
20260507071952 18 311 0.0 0.0 0.00 0.41 0.00 80 1013.6
20260507071508 17 5 0.0 0.0 0.00 0.41 0.00 81 1013.6
20260507070935 17 11 0.0 0.0 0.00 0.41 0.00 81 1013.5
20260507070449 17 14 0.0 0.0 0.00 0.41 0.00 82 1013.4
20260507065945 17 28 0.0 0.0 0.00 0.41 0.00 83 1013.4
20260507065452 17 28 0.0 0.0 0.00 0.41 0.00 84 1013.3
20260507064948 16 28 0.0 0.0 0.00 0.41 0.00 84 1013.4
20260507064438 16 28 0.0 0.0 0.00 0.41 0.00 85 1013.4
20260507063955 16 27 0.0 0.0 0.00 0.41 0.00 86 1013.3
20260507063445 15 304 0.0 0.0 0.00 0.41 0.00 87 1013.2
20260507063002 15 319 0.0 1.6 0.00 0.41 0.00 87 1013.2
20260507062451 15 323 0.0 3.2 0.00 0.41 0.00 87 1013.3
20260507061948 15 323 1.6 6.4 0.00 0.41 0.00 88 1013.3
20260507061504 15 321 0.0 6.4 0.00 0.41 0.00 88 1013.2
20260507060933 14 325 3.2 6.4 0.00 0.41 0.00 90 1013.3
20260507060450 14 321 1.6 4.8 0.00 0.41 0.00 92 1013.3
20260507055941 14 318 1.6 4.8 0.00 0.41 0.00 93 1013.2
20260507055437 13 309 0.0 6.4 0.00 0.41 0.00 93 1013.2
20260507054953 13 302 0.0 6.4 0.00 0.41 0.00 93 1013.1
20260507054503 13 305 3.2 6.4 0.00 0.41 0.00 94 1013.1
20260507053939 13 306 1.6 4.8 0.00 0.41 0.00 94 1013.1
20260507053455 13 241 0.0 3.2 0.00 0.41 0.00 94 1013.0
20260507052944 13 240 0.0 1.6 0.00 0.41 0.00 95 1013.0
20260507052441 13 237 0.0 1.6 0.00 0.41 0.00 95 1012.9
20260507052000 13 323 0.0 1.6 0.00 0.41 0.00 95 1012.9
20260507051456 13 323 0.0 1.6 0.00 0.41 0.00 95 1012.8
20260507050943 12 323 0.0 0.0 0.00 0.41 0.00 95 1012.8
20260507050438 12 323 0.0 0.0 0.00 0.41 0.00 94 1012.7
20260507050009 12 323 0.0 0.0 0.00 0.41 0.00 95 1012.7
20260507045438 12 323 0.0 0.0 0.00 0.61 0.00 94 1012.6
20260507045001 12 323 0.0 0.0 0.00 0.61 0.00 94 1012.6
20260507044450 12 323 0.0 0.0 0.00 0.61 0.00 94 1012.6
20260507043938 12 323 0.0 1.6 0.00 0.61 0.00 94 1012.6
20260507043454 12 323 0.0 1.6 0.00 0.61 0.00 94 1012.5
20260507042949 12 323 0.0 0.0 0.00 0.61 0.00 94 1012.4
20260507042438 12 323 0.0 0.0 0.00 0.61 0.00 94 1012.4
20260507041934 12 323 0.0 0.0 0.00 0.61 0.00 94 1012.3
20260507041451 12 323 0.0 0.0 0.00 0.61 0.00 94 1012.3
20260507041006 12 323 0.0 0.0 0.00 0.61 0.00 94 1012.2
20260507040500 12 323 0.0 0.0 0.00 0.61 0.00 94 1012.2
20260507040016 12 323 0.0 0.0 0.00 0.61 0.00 94 1012.2
20260507035443 12 323 0.0 0.0 0.00 0.71 0.00 94 1012.1
20260507034959 12 323 0.0 0.0 0.00 0.71 0.00 94 1012.1
20260507034449 12 323 0.0 0.0 0.00 0.71 0.00 94 1012.0
20260507033946 12 323 0.0 0.0 0.00 0.71 0.00 94 1012.0
20260507033437 12 323 0.0 0.0 0.00 0.71 0.00 94 1012.0
20260507032935 12 323 0.0 0.0 0.00 0.71 0.00 94 1012.0
20260507032444 12 323 0.0 0.0 0.00 0.71 0.00 94 1012.0
20260507031940 12 323 0.0 0.0 0.00 0.71 0.00 94 1011.9
20260507031438 12 323 0.0 0.0 0.00 0.71 0.00 94 1011.9
20260507031011 12 323 0.0 0.0 0.00 0.71 0.00 94 1011.9
20260507030459 12 323 0.0 0.0 0.00 0.71 0.00 94 1011.9
20260507025935 12 323 0.0 0.0 0.00 0.71 0.00 94 1011.9
20260507025451 13 323 0.0 0.0 0.00 0.71 0.00 94 1011.9
20260507024941 13 323 0.0 1.6 0.00 0.71 0.00 94 1011.9
20260507024437 13 323 0.0 1.6 0.00 0.71 0.00 94 1011.9
20260507023955 13 323 0.0 0.0 0.00 0.71 0.00 94 1011.9
20260507023450 13 323 0.0 0.0 0.00 0.71 0.00 94 1011.9
20260507022939 13 323 0.0 0.0 0.00 0.71 0.00 94 1012.0
20260507022456 12 323 0.0 0.0 0.00 0.71 0.00 93 1011.9
20260507021947 13 323 0.0 0.0 0.00 0.71 0.00 93 1012.0
20260507021443 13 323 0.0 0.0 0.00 0.71 0.00 93 1012.0
20260507020934 13 323 0.0 0.0 0.00 0.71 0.00 93 1012.0
20260507020510 13 323 0.0 0.0 0.00 0.71 0.00 93 1011.9
20260507015947 13 323 0.0 0.0 0.00 0.71 0.00 93 1012.0
20260507015437 13 323 0.0 0.0 0.00 0.71 0.00 93 1011.8
20260507014934 13 323 0.0 0.0 0.00 0.71 0.00 93 1011.8
20260507014442 13 323 0.0 0.0 0.00 0.71 0.00 93 1011.8
20260507013940 13 323 0.0 0.0 0.00 0.71 0.00 93 1011.8
20260507013455 13 323 0.0 0.0 0.00 0.71 0.00 93 1011.8
20260507012945 13 323 0.0 0.0 0.00 0.71 0.00 93 1011.7
20260507012502 13 323 0.0 0.0 0.00 0.71 0.00 93 1011.8
20260507011952 13 323 0.0 0.0 0.00 0.71 0.00 93 1011.7
20260507011440 13 323 0.0 0.0 0.00 0.71 0.00 93 1011.7
20260507010938 13 323 0.0 0.0 0.00 0.71 0.00 93 1011.8
20260507010456 13 323 0.0 0.0 0.00 0.71 0.00 93 1011.7
20260507010007 13 323 0.0 0.0 0.00 0.71 0.00 93 1011.7
20260507005441 13 323 0.0 0.0 0.00 0.71 0.00 93 1011.7
20260507004958 13 323 0.0 0.0 0.00 0.71 0.00 93 1011.7
20260507004447 13 323 0.0 3.2 0.00 0.71 0.00 93 1011.7
20260507003944 13 323 1.6 3.2 0.00 0.71 0.00 93 1011.7
20260507003435 13 322 0.0 3.2 0.00 0.71 0.00 93 1011.7
20260507002952 13 321 0.0 3.2 0.00 0.71 0.00 93 1011.7
20260507002447 13 320 1.6 3.2 0.00 0.71 0.00 93 1011.8
20260507001939 13 319 1.6 3.2 0.00 0.71 0.00 93 1011.8
20260507001455 13 319 0.0 3.2 0.00 0.71 0.00 93 1011.8
20260507000948 13 319 0.0 3.2 0.00 0.71 0.00 93 1011.8
20260507000437 13 319 1.6 3.2 0.00 0.71 0.00 93 1011.8
20260506235933 13 321 0.0 1.6 0.00 0.71 0.00 93 1011.7
20260506235450 13 321 0.0 0.0 0.00 0.71 0.00 93 1011.7
20260506234938 13 321 0.0 0.0 0.00 0.71 0.00 93 1011.8
20260506234435 13 321 0.0 0.0 0.00 0.71 0.00 93 1011.8
20260506234010 13 321 0.0 0.0 0.00 0.71 0.00 93 1011.7
20260506233455 13 321 0.0 0.0 0.00 0.71 0.00 93 1011.7
20260506232949 13 321 0.0 0.0 0.00 0.71 0.00 93 1011.7
20260506232443 13 321 0.0 0.0 0.00 0.71 0.00 93 1011.8
20260506231940 13 321 0.0 0.0 0.00 0.71 0.00 93 1011.8
20260506231450 14 321 0.0 3.2 0.00 0.71 0.00 93 1011.8
20260506231005 14 321 0.0 3.2 0.00 0.71 0.00 93 1011.8
20260506230501 14 321 0.0 4.8 0.00 0.71 0.00 92 1011.8
20260506225956 14 321 1.6 4.8 0.00 0.71 0.00 93 1011.7
20260506225512 14 319 3.2 4.8 0.00 0.71 0.00 93 1011.7
20260506224940 14 319 1.6 4.8 0.00 0.71 0.00 93 1011.7
20260506224456 14 315 1.6 3.2 0.00 0.71 0.00 93 1011.7
20260506223952 15 315 0.0 3.2 0.00 0.71 0.00 93 1011.7
20260506223443 15 315 1.6 3.2 0.00 0.71 0.00 93 1011.8
20260506222959 15 315 0.0 0.0 0.00 0.71 0.00 93 1011.8
20260506222452 15 315 0.0 0.0 0.00 0.71 0.00 93 1011.8
20260506221941 15 315 0.0 0.0 0.00 0.71 0.00 93 1011.7
20260506221458 15 315 0.0 0.0 0.00 0.71 0.00 93 1011.7
20260506220947 15 315 0.0 0.0 0.00 0.71 0.00 93 1011.7
20260506220438 15 315 0.0 0.0 0.00 0.71 0.00 93 1011.7
20260506215955 15 315 0.0 3.2 0.00 0.71 0.15 93 1011.7
20260506215449 15 315 0.0 3.2 0.00 0.71 0.15 93 1011.6
20260506214959 15 315 1.6 3.2 0.00 0.71 0.15 93 1011.7
20260506214456 15 315 0.0 3.2 0.00 0.71 0.15 93 1011.7
20260506213948 15 315 0.0 3.2 0.00 0.71 0.15 92 1011.7
20260506213444 15 315 1.6 4.8 0.00 0.71 0.15 92 1011.6
20260506212934 15 339 1.6 4.8 0.00 0.71 0.15 92 1011.6
20260506212451 15 355 0.0 1.6 0.00 0.71 0.15 92 1011.6
20260506211947 15 355 0.0 1.6 0.00 0.71 0.15 92 1011.6
20260506211436 15 355 0.0 0.0 0.00 0.71 0.15 92 1011.6
20260506210950 15 355 0.0 0.0 0.00 0.71 0.15 92 1011.6
20260506210441 15 355 0.0 0.0 0.00 0.71 0.15 92 1011.5
20260506205939 15 355 0.0 0.0 0.00 0.71 0.15 92 1011.6
20260506205516 15 355 0.0 0.0 0.00 0.71 0.15 92 1011.4
20260506204944 15 355 0.0 0.0 0.00 0.71 0.15 92 1011.4
20260506204501 15 355 0.0 0.0 0.00 0.71 0.15 92 1011.4
20260506203947 15 355 0.0 0.0 0.00 0.71 0.15 92 1011.3
20260506203438 15 355 0.0 0.0 0.00 0.71 0.15 92 1011.4
20260506202952 15 355 0.0 1.6 0.00 0.71 0.15 92 1011.4
20260506202506 15 355 0.0 3.2 0.00 0.71 0.15 92 1011.3
20260506201935 15 355 1.6 3.2 0.00 0.71 0.15 92 1011.3
20260506201447 15 355 0.0 1.6 0.00 0.71 0.15 91 1011.3
20260506200940 15 355 0.0 4.8 0.00 0.71 0.15 91 1011.3
20260506200453 15 355 0.0 4.8 0.00 0.71 0.15 91 1011.2